Orbital Elements
Epoch 2002 Jan. 6.0 TT = JDT 2452280.5
T 2002 Jan. 9.16632 TT MPC
q 3.4574134 (2000.0) P Q
n 0.10746337 Peri. 25.87041 -0.88239258 -0.46088741
a 4.3815633 Node 126.36021 +0.40870585 -0.85050489
e 0.2109178 Incl. 6.75259 +0.23311556 -0.25342499
P 9.17
From 35 observations 2002 Mar. 11-2012 May 21, mean residual 0".46.
|